This demonstration page uses our WeatherBlox Daily Observations layout. Learn more.

Left ArrowRight Arrow

36.19886, -115.1175

Hourly Observations for February 2, 2022

Temp ( °F °C ) Dew Point ( °F °C ) Humidity (%) Winds ( mph kmh ) Pressure ( in mb ) Visibility ( mi km ) Precip ( " mm )
12:53 am 00:53 Clear 44 6.7 4 -15.6 19 19 N 10 17 30.01 1016 10 16 0.00 0.00
1:53 am 01:53 Clear 42 5.6 4 -15.6 20 20 NNE 10 17 30.02 1017 10 16 0.00 0.00
2:53 am 02:53 Clear 42 5.6 3 -16.1 19 19 NNW 22 35 30.01 1016 10 16 0.00 0.00
3:53 am 03:53 Clear 41 5 4 -15.6 21 21 NNW 15 24 30.04 1017 10 16 0.00 0.00
4:53 am 04:53 Clear 40 4.4 4 -15.6 22 22 NNW 17 28 30.07 1018 10 16 0.00 0.00
5:53 am 05:53 Clear 40 4.4 4 -15.6 22 22 NNW 17 28 30.10 1019 10 16 0.00 0.00
6:53 am 06:53 Sunny 39 3.9 4 -15.6 23 23 NNW 18 30 30.13 1020 10 16 0.00 0.00
7:53 am 07:53 Sunny 41 5 4 -15.6 21 21 NW 17 28 30.16 1021 10 16 0.00 0.00
8:53 am 08:53 Sunny 44 6.7 3 -16.1 18 18 NNW 22 35 30.17 1022 10 16 0.00 0.00
9:53 am 09:53 Sunny 45 7.2 1 -17.2 16 16 NNW 24 39 30.17 1022 10 16 0.00 0.00
10:53 am 10:53 Sunny with Light Rain 47 8.3 -2 -18.9 13 13 NNW 28 44 30.16 1021 10 16 0.00 0.00
11:53 am 11:53 Sunny 49 9.4 -3 -19.4 11 11 NNW 24 39 30.15 1021 10 16 0.00 0.00
12:53 pm 12:53 Sunny 50 10 -3 -19.4 11 11 NNW 23 37 30.14 1021 10 16 0.00 0.00
1:53 pm 13:53 Sunny 50 10 -2 -18.9 11 11 NNW 22 35 30.12 1020 10 16 0.00 0.00
2:53 pm 14:53 Sunny 50 10 -3 -19.4 11 11 NW 21 33 30.12 1020 10 16 0.00 0.00
3:53 pm 15:53 Sunny 50 10 -2 -18.9 11 11 NNW 12 19 30.14 1021 10 16 0.00 0.00
4:53 pm 16:53 Sunny 49 9.4 0 -17.8 13 13 NNE 12 19 30.16 1021 10 16 0.00 0.00
5:53 pm 17:53 Clear 47 8.3 0 -17.8 14 14 N 7 11 30.19 1022 10 16 0.00 0.00
6:53 pm 18:53 Clear 45 7.2 1 -17.2 16 16 N 7 11 30.22 1023 10 16 0.00 0.00
7:53 pm 19:53 Clear 43 6.1 1 -17.2 17 17 ENE 6 9 30.25 1024 10 16 0.00 0.00
8:53 pm 20:53 Clear 42 5.6 1 -17.2 18 18 ENE 13 20 30.27 1025 10 16 0.00 0.00
9:53 pm 21:53 Clear 40 4.4 1 -17.2 19 19 W 3 6 30.29 1026 10 16 0.00 0.00
10:53 pm 22:53 Clear 38 3.3 -1 -18.3 19 19 E 6 9 30.29 1026 10 16 0.00 0.00
11:53 pm 23:53 Clear 38 3.3 0 -17.8 20 20 E 5 7 30.29 1026 10 16 0.00 0.00

Powered by AerisWeather